Regional Weather Roundup
Issued by NWS

Home | Current Version | Previous Version | Text Only | Print | Product List | Glossary On
Versions: 1 2 3 4 5 6 7 8 9 10 11 12 13 14 15 16 17 18 19 20 21 22 23 24 25 26 27 28 29 30 31 32 33 34 35 36 37 38 39 40 41 42 43 44 45 46 47 48 49 50
000
ASUS46 KSEW 270310
RWRWA

WASHINGTON REGIONAL WEATHER ROUNDUP
NATIONAL WEATHER SERVICE SEATTLE WA
800 PM PDT THU MAY 26 2016

NOTE:"FAIR" INDICATES FEW OR NO CLOUDS BELOW 12,000 FEET WITH NO
SIGNIFICANT WEATHER AND/OR OBSTRUCTIONS TO VISIBILITY.

WAZ505-507>509-270400-
SEATTLE, TACOMA, EVERETT, AND VICINITY

CITY           SKY/WX    TMP DP  RH WIND       PRES   REMARKS
EVERETT        LGT RAIN  51  44  77 N7        30.13S
BOEING FIELD   CLOUDY    58  45  62 S10       30.13S
RENTON         CLOUDY    58  44  60 S8        30.12S
SEATAC AIRPORT MOCLDY    56  44  64 SW14      30.13F
JBLM-MCCHORD   CLOUDY    56  44  63 SW10      30.14S
PUYALLUP       CLOUDY    55  46  71 SW9G15    30.15S
BREMERTON      CLOUDY    55  43  62 S10       30.14S
JBLM-FT LEWIS  CLOUDY    56  43  62 S10       30.14S
TACOMA NARROWS MOCLDY    55  42  61 SW13      30.14S
$$

WAZ001-503-506-510-514-515-270400-
NORTH INTERIOR

CITY           SKY/WX    TMP DP  RH WIND       PRES   REMARKS
BELLINGHAM     MOCLDY    55  42  61 S9        30.08S
FRIDAY HARBOR  PTCLDY    53  39  59 SW10G21   30.10S
EASTSOUND      PTCLDY    55  41  58 S9        30.06S
PORT ANGELES   PTCLDY    55  40  56 NW16G26   30.11S
EDIZ HOOK      FAIR      55  43  64 NW28G33   30.11S
PORT TOWNSEND  CLOUDY    54  45  71 NW7G14    30.13S
NAS WHIDBEY    MOCLDY    55  45  68 W18G25    30.15F
ARLINGTON      CLOUDY    52  41  66 CALM      30.16S
BURLINGTON     CLOUDY    54  43  66 SW8       30.12F
$$

WAZ020-022-039-040-504-511-512-270400-
SOUTHWEST INTERIOR

CITY           SKY/WX    TMP DP  RH WIND       PRES   REMARKS
SHELTON        CLEAR     54  39  57 SW16G26   30.11S
OLYMPIA        MOCLDY    55  40  56 W12       30.16S
CHEHALIS       CLOUDY    55  46  71 VRB5      30.19S
KELSO          CLOUDY    55  45  67 W7        30.24S
VANCOUVER      MOCLDY    58  44  60 NW6       30.19S
SCAPPOOSE, OR  CLOUDY    57  44  62 W6        30.19S
PORTLAND, OR   PTCLDY    58  44  60 N5        30.20R
$$

WAZ021-516-517-270400-
WASHINGTON COAST

CITY           SKY/WX    TMP DP  RH WIND       PRES   REMARKS
FORKS          CLOUDY    52  44  74 W10       30.19S
HOQUIAM        CLOUDY    54  47  77 W10       30.20S HAZE
ASTORIA, OR    CLOUDY    54  48  80 NW9       30.22S
$$

WAZ019-023-024-040-518-519-270400-
CASCADE MOUNTAINS AND COLUMBIA GORGE

CITY           SKY/WX    TMP DP  RH WIND       PRES   REMARKS
STAMPEDE PASS  CLOUDY    40  35  83 W8G16     30.08F
TROUTDALE, OR  CLOUDY    59  43  55 VRB5      30.19R
THE DALLES, OR MOCLDY    60  41  49 NW26G32   30.07F
$$

WAZ026-027-041>044-520-521-270400-
EAST SLOPES

CITY           SKY/WX    TMP DP  RH WIND       PRES   REMARKS
OMAK           CLOUDY    65  43  44 N14       29.86R
WENATCHEE      MOCLDY    62  35  36 NW25G31   29.94R
ELLENSBURG     MOCLDY    55  38  52 NW33G46   30.01R
YAKIMA         MOCLDY    63  35  35 NW16      29.99R
$$

WAZ028-034-035-270400-
COLUMBIA BASIN

CITY           SKY/WX    TMP DP  RH WIND       PRES   REMARKS
EPHRATA        MOCLDY    66  36  32 NW15      29.87S
MOSES LAKE     PTCLDY    67  36  31 W18G26    29.89R
PASCO          CLEAR     65  42  43 SW13G22   29.93R
HERMISTON, OR    N/A    N/A N/A N/A MISG        N/A
$$

WAZ036>038-270400-
NORTHEAST WASHINGTON

CITY           SKY/WX    TMP DP  RH WIND       PRES   REMARKS
SPOKANE GEIGER PTCLDY    62  41  46 SW13      29.91F
SPOKANE FELTS  PTCLDY    65  43  44 S8        29.91F
FAIRCHILD AFB  CLOUDY    61  43  50 S13       29.91F
COEURDALENE,ID PTCLDY    61  45  55 E10       29.90S
DEER PARK      MOCLDY    63  41  44 S8        29.90F
$$

WAZ029>033-270400-
SOUTHEAST WASHINGTON

CITY           SKY/WX    TMP DP  RH WIND       PRES   REMARKS
PULLMAN        PTCLDY    58  39  49 W8        29.97F
LEWISTON, ID   MOCLDY    66  38  35 CALM      29.93S
WALLA WALLA    PTCLDY    62  38  40 SW14      29.97R
PENDLETON, OR  PTCLDY    58  37  45 W23G29    30.00R
$$



USA.gov is the U.S. government's official web portal to all federal, state and local government web resources and services.